Tracking 29892 objects as of 21-Nov-2024
HD Live streaming from Space Station
objects crossing your sky now

DELTA 1 DEB

Track DELTA 1 DEB now!
10-day predictions


NORAD ID: 12529
Int'l Code: 1976-077DJ
Perigee: 1,286.4 km
Apogee: 2,813.5 km
Inclination: 103.5 °
Period: 128.2 minutes
Semi major axis: 8420 km
RCS: 0.2387 m2 (medium)
Launch date: July 29, 1976
Source: United States (US)
Launch site: AIR FORCE WESTERN TEST RANGE (AFWTR)

Note: This is SATELLITE DEBRIS
Your satellite tracking list
Your tracking list is empty




NASA's NSSDC Master Catalog

Two Line Element Set (TLE):
1 12529U 76077DJ  24325.55584860  .00003009  00000-0  38235-1 0  9997
2 12529 103.5436 134.7861 0906740 229.7464 122.0752 11.23465763768696
Source of the keplerian elements: AFSPC